Overview Statistics Trail Chart Weather Telemetry Raw packets
 

This is the latest recevied weather packets stored in our database for station/object N1YZ. If no packets are shown the sender has not sent any weather packets the latest 10 day(s).

<< 13 14 15 16 17 18 19 >>
Time Temp. Humidity Pressure Rain* Wind** Luminosity Snow
1788560702 33.89° C 58% 1032.8 hPa 0 mm - 26 W/m² -
1788560396 33.89° C 57% 1032.7 hPa 0 mm - 29 W/m² -
1788560091 33.89° C 58% 1032.6 hPa 0 mm - 31 W/m² -
1788559786 34.44° C 57% 1032.7 hPa 0 mm - 34 W/m² -
1788559486 34.44° C 55% 1032.6 hPa 0 mm - 94 W/m² -
1788559181 33.89° C 55% 1032.4 hPa 0 mm - 39 W/m² -
1788558876 33.89° C 58% 1032.5 hPa 0 mm - 42 W/m² -
1788558571 33.89° C 58% 1032.5 hPa 0 mm - 51 W/m² -
1788558267 34.44° C 55% 1032.4 hPa 0 mm - 52 W/m² -
1788557966 34.44° C 56% 1032.7 hPa 0 mm - 70 W/m² -
1788557655 34.44° C 56% 1032.9 hPa 0 mm - 113 W/m² -
1788557352 34.44° C 57% 1032.6 hPa 0 mm - 50 W/m² -
1788557051 34.44° C 55% 1032.9 hPa 0 mm - 53 W/m² -
1788556747 33.89° C 53% 1032.8 hPa 0 mm - 52 W/m² -
1788556441 34.44° C 56% 1032.5 hPa 0 mm - 57 W/m² -
1788556136 34.44° C 55% 1032.7 hPa 0 mm - 53 W/m² -
1788555836 34.44° C 59% 1032.8 hPa 0 mm - 60 W/m² -
1788555532 34.44° C 57% 1032.5 hPa 0 mm - 60 W/m² -
1788555227 34.44° C 57% 1032.8 hPa 0 mm - 93 W/m² -
1788554924 34.44° C 57% 1032.9 hPa 0 mm - 89 W/m² -
1788554620 34.44° C 54% 1032.9 hPa 0 mm - 72 W/m² -
1788554316 33.89° C 55% 1032.9 hPa 0 mm - 91 W/m² -
1788554012 33.89° C 57% 1032.8 hPa 0 mm - 446 W/m² -
1788553707 34.44° C 59% 1033 hPa 0 mm - 78 W/m² -
1788553403 34.44° C 58% 1033.1 hPa 0 mm - 351 W/m² -

* Rain latest hour (hover to see other rain measurements)
** Current wind speed in m/s (hover to see current wind gust speed)